STARLINK-32322, 61720

Orbit data source: Space-Track

STARLINK-32322, 61720 is a payload satellite owned by SpaceX/Seattle (US) in LEO that was launched on Wed, 30 Oct 2024 UTC via an FALCON 9 launch vehicle from the Air Force Eastern Test Range (AFETR). Payload-class satellites include a variety of spacecraft equipped with specific instruments for various scientific and technological missions. These include communications satellites like Starlink; space stations such as the ISS; scientific satellites like the Hubble; Earth observation satellites from companies like Planet Labs, Umbra, and HawkEye 360; GPS; miniature CubeSats for education and research; and military/defense satellites.

Loading next visibility...
Identifier
61720, 2024-196P
Orbit
LEO
Country
Flag of USUS
Related business
Manufacturer
SpaceX/Seattle
Mission
Operational Commercial Communications
Bus & Motor
STARLINK V2M, Unknown motor
Mass
730 kg wet, ~700 kg dry
Launch date (UTC)
2024-10-30 (2 years ago)
Launch vehicle
FALCON 9
Launch site
Air Force Eastern Test Range (AFETR)
Object type
Payload
Rocket body
Debris
Shape & HBR
Box + 2 Pan, 17.7 m
Radar Cross Section
33.884 m², Large (>1 m²)

Expand to show TLE details & history
Last TLE update: 13 hours ago

TLE from 13 hours ago
0 STARLINK-32322
1 61720U 24196P   26125.45780211  .00000394  00000-0  25422-4 0  9997
2 61720  53.1619 197.9695 0001294  98.3386 261.7762 15.30199441 85845
Epoch: 2026-05-05T10:59Z
TLE epoch observation values (Epoch: 2026-05-05T10:59:14.102Z)
Latitude
0.00003°
Longitude
169.8284°
Altitude
476.244 km
Speed
7.629 km/s
True Right ascension
13h 11m 52s
True Declination
0° 00' 00"
Sunlit
Object was in full shadow at epoch
Visualization orbit readout
Latitude
Unknown
Longitude
Unknown
Altitude
Unknown
Speed
Unknown
Apparent Right ascension
Unknown
Apparent Declination
Unknown
Sunlit
N/A
Visualization observer readout
Local Sidereal Time
07:30:53
Azimuth
Unknown
Elevation
Unknown
Doppler factor
Unknown
Orbital elements
Apogee altitude
476.36 km
Perigee altitude
474.586 km
Semi-major axis
6,853.61 km
Eccentricity
0.00013
Inclination
53.1619°
RAAN
197.9695°
Arg. of periapsis
98.3386°
True anomaly
261.76152°
Mean anomaly
261.7762°
Eccentric anomaly
261.76886°
Mean motion
3.82529 °/min
Orbital period
94.11 mins
BSTAR
0.000025422
Loading maneuver chart data...
Computing Atmospheric mass density...
Loading historical data...
Loading historical data...
Loading historical data...
Loading historical data...
Loading historical data...
Loading historical data...
Loading historical data...

Documentation

Showing up to 5 results
|